This demonstration page uses our WeatherBlox Daily Observations layout. Learn more.

Left ArrowRight Arrow

41.86663, -103.66717

Hourly Observations for January 4, 2017

Temp ( °F °C ) Dew Point ( °F °C ) Humidity (%) Winds ( mph kmh ) Pressure ( in mb ) Visibility ( mi km ) Precip ( " mm )
12:53 am 00:53 Cloudy with Light Snow 9 -12.8 3 -16.1 77 77 E 7 11 30.33 1027 2 2 0.02 0.51
1:31 am 01:31 Cloudy with Light Snow 8 -13.3 3 -16.1 80 80 E 8 13 30.48 1032 2 3 0.01 0.25
1:45 am 01:45 Cloudy with Light Snow 8 -13.3 3 -16.1 80 80 E 9 15 30.48 1032 3 5 0.01 0.25
1:53 am 01:53 Cloudy with Light Snow 8 -13.3 3 -16.1 80 80 E 9 15 30.32 1027 3 5 0.01 0.25
2:08 am 02:08 Cloudy with Light Snow 9 -13 1 -17 72 72 E 10 17 30.48 1032 3 4 0.00 0.00
2:19 am 02:19 Cloudy with Light Snow 7 -13.9 2 -16.7 80 80 ENE 9 15 30.48 1032 2 3 0.00 0.00
2:40 am 02:40 Cloudy with Light Snow 7 -14 1 -17 78 78 ENE 9 15 30.48 1032 2 3 0.00 0.00
2:53 am 02:53 Cloudy with Light Snow 7 -13.9 1 -17.2 76 76 ENE 9 15 30.32 1027 2 3 0.01 0.25
3:12 am 03:12 Cloudy with Light Snow 7 -14 1 -17 78 78 E 9 15 30.48 1032 3 4 0.00 0.00
3:31 am 03:31 Cloudy with Light Snow 7 -13.9 2 -16.7 80 80 E 9 15 30.45 1031 2 3 0.00 0.00
3:53 am 03:53 Cloudy with Light Snow 7 -13.9 2 -16.7 80 80 E 9 15 30.30 1026 2 3 0.01 0.25
4:53 am 04:53 Cloudy with Light Snow 6 -14.4 1 -17.2 79 79 ENE 8 13 30.29 1026 1 2 0.01 0.25
5:31 am 05:31 Cloudy with Light Snow 6 -14.4 1 -17.2 79 79 E 9 15 30.42 1030 2 3 0.01 0.25
5:53 am 05:53 Cloudy with Light Snow 6 -14.4 1 -17.2 79 79 E 10 17 30.27 1025 3 4 0.02 0.51
6:28 am 06:28 Cloudy with Light Snow 7 -14 1 -17 78 78 ESE 9 15 30.42 1030 3 5 0.00 0.00
6:36 am 06:36 Cloudy with Light Snow 7 -14 1 -17 78 78 ESE 13 20 30.39 1029 2 3 0.00 0.00
6:53 am 06:53 Cloudy with Light Snow 7 -13.9 2 -16.7 80 80 ESE 12 19 30.24 1024 2 3 0.01 0.25
7:10 am 07:10 Cloudy with Light Snow 7 -14 1 -17 78 78 ESE 10 17 30.39 1029 3 5 0.00 0.00
7:17 am 07:17 Cloudy with Light Snow 7 -13.9 2 -16.7 80 80 ESE 10 17 30.39 1029 2 3 0.00 0.00
7:37 am 07:37 Cloudy with Light Snow 7 -13.9 2 -16.7 80 80 ESE 10 17 30.39 1029 3 5 0.00 0.00
7:46 am 07:46 Cloudy with Light Snow 7 -14 1 -17 78 78 ESE 13 20 30.39 1029 2 3 0.00 0.00
7:53 am 07:53 Cloudy with Light Snow 7 -13.9 2 -16.7 80 80 ESE 12 19 30.23 1024 2 2 0.00 0.00
8:04 am 08:04 Cloudy with Light Snow 7 -14 1 -17 78 78 ESE 12 19 30.39 1029 1 2 0.00 0.00
8:15 am 08:15 Cloudy with Light Snow 7 -13.9 2 -16.7 80 80 ESE 12 19 30.39 1029 1 1 0.01 0.25
8:46 am 08:46 Cloudy with Light Snow 9 -13 3 -16 78 78 ESE 10 17 30.36 1028 1 2 0.00 0.00
8:53 am 08:53 Cloudy with Light Snow 8 -13.3 2 -16.7 76 76 E 10 17 30.23 1024 1 2 0.02 0.51
9:53 am 09:53 Cloudy with Light Snow 8 -13.3 2 -16.7 76 76 ESE 10 17 30.24 1024 1 2 0.02 0.51
10:53 am 10:53 Cloudy with Light Snow 9 -12.8 3 -16.1 77 77 E 10 17 30.23 1024 1 1 0.01 0.25
11:08 am 11:08 Cloudy with Light Snow 9 -13 3 -16 78 78 E 10 17 30.33 1027 1 2 0.00 0.00
11:19 am 11:19 Cloudy with Light Snow 9 -12.8 2 -16.7 73 73 E 10 17 30.33 1027 2 3 0.01 0.25
11:33 am 11:33 Cloudy with Light Snow 9 -12.8 3 -16.1 77 77 ESE 9 15 30.33 1027 1 2 0.01 0.25
11:53 am 11:53 Cloudy with Light Snow 9 -12.8 3 -16.1 77 77 E 9 15 30.18 1022 1 2 0.02 0.51
12:05 pm 12:05 Cloudy with Light Snow 9 -12.8 3 -16.1 77 77 E 7 11 30.30 1026 1 2 0.00 0.00
12:21 pm 12:21 Cloudy with Light Snow 9 -12.8 3 -16.1 77 77 ENE 7 11 30.30 1026 1 1 0.01 0.25
12:32 pm 12:32 Cloudy with Light Snow 9 -13 1 -17 72 72 E 7 11 30.30 1026 1 2 0.00 0.00
12:51 pm 12:51 Mostly Cloudy with Light Snow 9 -13 3 -16 78 78 E 6 9 30.27 1025 1 1 0.01 0.25
12:53 pm 12:53 Mostly Cloudy with Light Snow 9 -12.8 3 -16.1 77 77 E 7 11 30.15 1021 1 1 0.01 0.25
1:07 pm 13:07 Cloudy with Light Snow 9 -12.8 3 -16.1 77 77 E 6 9 30.27 1025 1 2 0.01 0.25
1:28 pm 13:28 Mostly Cloudy with Light Snow 9 -13 3 -16 78 78 ENE 5 7 30.27 1025 1 1 0.00 0.00
1:53 pm 13:53 Mostly Cloudy with Light Snow 10 -12.2 4 -15.6 76 76 NE 3 6 30.15 1021 1 1 0.02 0.51
2:06 pm 14:06 Mostly Cloudy with Snow 10 -12 3 -16 72 72 NNE 3 6 30.27 1025 1 1 0.00 0.00
2:24 pm 14:24 Mostly Cloudy with Light Snow 10 -12 3 -16 72 72 NNE 5 7 30.24 1024 1 1 0.00 0.00
2:32 pm 14:32 Mostly Cloudy with Light Snow 10 -12 3 -16 72 72 NE 3 6 30.24 1024 1 2 0.00 0.00
2:49 pm 14:49 Mostly Cloudy with Light Snow 10 -12 3 -16 72 72 NNE 3 6 30.27 1025 1 1 0.02 0.51
2:53 pm 14:53 Mostly Cloudy with Snow 10 -12.2 4 -15.6 76 76 NNE 7 11 30.16 1021 1 1 0.02 0.51
3:53 pm 15:53 Mostly Cloudy with Snow 9 -12.8 4 -15.6 80 80 N 7 11 30.19 1022 1 1 0.03 0.76
4:25 pm 16:25 Cloudy with Light Snow 8 -13.3 3 -16.1 80 80 NNW 8 13 30.33 1027 1 2 0.02 0.51
4:36 pm 16:36 Cloudy with Light Snow 9 -13 3 -16 78 78 NNW 9 15 30.33 1027 1 2 0.00 0.00
4:53 pm 16:53 Cloudy with Light Snow 7 -13.9 3 -16.1 84 84 NNW 12 19 30.22 1024 1 2 0.03 0.76
5:53 pm 17:53 Mostly Cloudy with Light Snow 6 -14.4 1 -17.2 79 79 WNW 7 11 30.25 1025 1 2 0.03 0.76
6:23 pm 18:23 Cloudy with Light Snow 6 -14.4 1 -17.2 79 79 NW 7 11 30.39 1029 2 3 0.01 0.25
6:32 pm 18:32 Cloudy with Light Snow 7 -14 1 -17 78 78 NW 5 7 30.39 1029 4 6 0.00 0.00
6:53 pm 18:53 Cloudy with Light Snow 6 -14.4 1 -17.2 79 79 NW 7 11 30.25 1024 3 5 0.01 0.25
7:53 pm 19:53 Cloudy with Light Snow 5 -15 0 -17.8 79 79 WNW 9 15 30.25 1024 5 8 0.01 0.25
8:53 pm 20:53 Cloudy 5 -15 -2 -18.9 72 72 WNW 9 15 30.22 1024 9 14 0.00 0.00
9:30 pm 21:30 Cloudy with Light Snow 5 -15 0 -18 78 78 WNW 7 11 30.39 1029 3 4 0.00 0.00
9:41 pm 21:41 Cloudy with Light Snow 5 -15 -2 -19 72 72 WNW 12 19 30.39 1029 5 8 0.00 0.00
9:53 pm 21:53 Cloudy 5 -15 -2 -18.9 72 72 WNW 9 15 30.26 1025 10 16 0.00 0.00
10:36 pm 22:36 Cloudy with Light Snow 5 -15 0 -18 78 78 WNW 10 17 30.39 1029 3 4 0.00 0.00
10:50 pm 22:50 Cloudy with Light Snow 5 -15 0 -18 78 78 WNW 7 11 30.39 1029 3 5 0.00 0.00
10:53 pm 22:53 Cloudy with Light Snow 5 -15 -1 -18.3 76 76 WNW 7 11 30.25 1024 3 5 0.00 0.00
11:53 pm 23:53 Cloudy 5 -15 0 -17.8 79 79 W 9 15 30.24 1024 10 16 0.00 0.00

Powered by AerisWeather